Location: ????????
(55.6189°N, 38.3031°E)
Time: 01:56:43
(UTC+00:00)

Cosmos 2346 Rocket - Pass Details

Date: 15 November 2019
Orbit: 935 x 981 km, 82.9° (Epoch: 08 December)

Event Time Altitude Azimuth Distance (km) Brightness Sun altitude
Rises 03:14:07 0° 347° (NNW) 3,643 7.3 -14.7°
Reaches altitude 10° 03:16:38 10° 346° (NNW) 2,687 6.6 -14.3°
Maximum altitude 03:22:45 76° 263° (W) 978 4.4 -13.5°
Drops below altitude 10° 03:28:46 10° 179° (S) 2,647 7.0 -12.7°
Sets 03:31:14 0° 178° (S) 3,584 7.7 -12.3°
